Date String (YYYY-MM-DD hh:mm:ss) UTC,Instrument flags,absolute air pressure of the measurement (hPa),sample flow rate (lpm),inlet stack bypass flow (lpm),air temperature of the measurement (°C),ambient temperature measured by the external sensor (°C),aerosol sample conditioner tube jacket temperature (°C),OPC LED temperature (°C),internal box temperature (°C),relative humidity of the measurement (%),span deviation,mass concentration of particles derived from Lorenz-Mie calculation of OPC scattering (μg/m³),mass concentration of particles derived from Lorenz-Mie calculation of OPC scattering (μg/m³),mass concentration of particles derived from Lorenz-Mie calculation of OPC scattering (μg/m³)
DateTimeUTC,F1_M11,P_M11,Q1_M11,Q2_M11,T1_M11,T2_M11,T3_M11,T4_M11,T5_M11,U1_M11,ZSPAN_M11,X0_M11,X2_M11,X1_M11
2023-10-21 10:00:00,SystemResetWarning,0829.7,5.01,000.00,029.0,027.5,000.0,037.5,030.6,10.0,0000.0,0004.23,0001.77,0000.96
2023-10-21 10:01:00,SystemResetWarning,0829.7,5.00,000.00,029.0,027.5,000.0,037.5,030.7,10.0,0000.0,0003.81,0001.77,0000.98
2023-10-21 10:02:00,SystemResetWarning,0829.7,4.98,000.00,029.0,027.5,000.0,037.5,030.7,10.1,0000.0,0003.80,0001.75,0000.98
2023-10-21 10:03:00,SystemResetWarning,0829.7,5.02,000.00,029.0,027.5,000.0,037.5,030.6,10.0,0000.0,0003.67,0001.72,0000.98
2023-10-21 10:04:00,SystemResetWarning,0829.7,5.01,000.00,029.0,027.5,000.0,037.5,030.6,10.1,0000.0,0004.29,0001.71,0000.99
2023-10-21 10:05:00,SystemResetWarning,0829.7,4.99,000.00,029.0,027.5,000.0,037.5,030.6,10.0,0000.0,0004.89,0001.73,0000.98
2023-10-21 10:06:00,SystemResetWarning,0829.6,4.99,000.00,029.0,027.5,000.0,037.5,030.6,10.0,0000.0,0006.11,0001.76,0001.00
2023-10-21 10:07:00,SystemResetWarning,0829.7,5.00,000.00,029.0,027.5,000.0,037.5,030.6,10.0,0000.0,0006.23,0001.74,0000.99
2023-10-21 10:08:00,SystemResetWarning,0829.7,5.01,000.00,029.0,027.5,000.0,037.5,030.6,10.0,0000.0,0006.40,0001.74,0000.99
2023-10-21 10:09:00,SystemResetWarning,0829.7,5.00,000.00,029.0,027.5,000.0,037.5,030.6,10.0,0000.0,0006.24,0001.70,0000.98
2023-10-21 10:10:00,SystemResetWarning,0829.6,5.00,000.00,029.0,027.5,000.0,037.5,030.6,9.9,0000.0,0006.23,0001.69,0000.97
2023-10-21 10:11:00,SystemResetWarning,0829.7,4.99,000.00,029.0,027.5,000.0,037.5,030.6,9.9,0000.0,0006.77,0001.70,0000.97
2023-10-21 10:12:00,SystemResetWarning,0829.6,5.00,000.00,029.0,027.5,000.0,037.5,030.6,9.8,0000.0,0006.50,0001.65,0000.97
2023-10-21 10:13:00,SystemResetWarning,0829.7,5.00,000.00,029.0,027.5,000.0,037.5,030.6,9.8,0000.0,0006.46,0001.61,0000.96
2023-10-21 10:14:00,SystemResetWarning,0829.7,5.01,000.00,029.0,027.5,000.0,037.5,030.7,9.9,0000.0,0006.51,0001.62,0000.96
2023-10-21 10:15:00,SystemResetWarning,0829.7,5.01,000.00,029.0,027.5,000.0,037.5,030.6,9.8,0000.0,0006.68,0001.65,0000.95
2023-10-21 10:16:00,SystemResetWarning,0829.6,5.00,000.00,029.0,027.5,000.0,037.5,030.7,9.8,0000.0,0006.94,0001.69,0000.95
2023-10-21 10:17:00,SystemResetWarning,0829.6,5.01,000.00,029.0,027.6,000.0,037.5,030.7,9.9,0000.0,0005.80,0001.71,0000.95
2023-10-21 10:18:00,SystemResetWarning,0829.6,4.99,000.00,029.0,027.6,000.0,037.5,030.7,9.9,0000.0,0005.70,0001.72,0000.95
2023-10-21 10:19:00,SystemResetWarning,0829.6,4.99,000.00,029.0,027.6,000.0,037.5,030.7,10.0,0000.0,0005.46,0001.67,0000.95
2023-10-21 10:20:00,SystemResetWarning,0829.7,5.00,000.00,029.0,027.6,000.0,037.5,030.7,10.0,0000.0,0005.55,0001.69,0000.95
2023-10-21 10:21:00,SystemResetWarning,0829.7,5.00,000.00,029.0,027.6,000.0,037.5,030.7,10.0,0000.0,0005.89,0001.71,0000.95
2023-10-21 10:22:00,SystemResetWarning,0829.7,5.00,000.00,029.0,027.6,000.0,037.5,030.7,9.9,0000.0,0005.44,0001.71,0000.93
2023-10-21 10:23:00,SystemResetWarning,0829.7,5.00,000.00,029.0,027.6,000.0,037.5,030.7,9.9,0000.0,0005.68,0001.74,0000.92
2023-10-21 10:24:00,SystemResetWarning,0829.7,5.01,000.00,029.1,027.6,000.0,037.5,030.7,9.9,0000.0,0006.75,0001.74,0000.91
2023-10-21 10:25:00,SystemResetWarning,0829.7,5.00,000.00,029.1,027.6,000.0,037.5,030.7,9.9,0000.0,0007.28,0001.72,0000.91
2023-10-21 10:26:00,SystemResetWarning,0829.7,5.00,000.00,029.1,027.6,000.0,037.5,030.7,9.9,0000.0,0006.84,0001.71,0000.92
2023-10-21 10:27:00,SystemResetWarning,0829.7,5.00,000.00,029.1,027.6,000.0,037.5,030.7,10.0,0000.0,0006.15,0001.66,0000.91
2023-10-21 10:28:00,SystemResetWarning,0829.7,5.00,000.00,029.1,027.7,000.0,037.5,030.7,10.1,0000.0,0006.14,0001.62,0000.90
2023-10-21 10:29:00,SystemResetWarning,0829.7,5.01,000.00,029.1,027.6,000.0,037.5,030.7,10.1,0000.0,0006.09,0001.58,0000.89
2023-10-21 10:30:00,SystemResetWarning,0829.7,4.99,000.00,029.1,027.6,000.0,037.5,030.8,10.2,0000.0,0006.44,0001.63,0000.88
2023-10-21 10:31:00,SystemResetWarning,0829.7,5.00,000.00,029.1,027.6,000.0,037.5,030.7,10.2,0000.0,0006.49,0001.68,0000.88
2023-10-21 10:32:00,SystemResetWarning,0829.7,4.99,000.00,029.1,027.6,000.0,037.5,030.8,10.2,0000.0,0006.15,0001.67,0000.89
2023-10-21 10:33:00,SystemResetWarning,0829.7,5.00,000.00,029.1,027.6,000.0,037.5,030.8,10.2,0000.0,0005.93,0001.60,0000.90
2023-10-21 10:34:00,SystemResetWarning,0829.7,5.00,000.00,029.1,027.6,000.0,037.5,030.7,10.2,0000.0,0005.78,0001.58,0000.90
2023-10-21 10:35:00,SystemResetWarning,0829.7,5.00,000.00,029.1,027.6,000.0,037.5,030.7,10.1,0000.0,0004.75,0001.60,0000.91
2023-10-21 10:36:00,SystemResetWarning,0829.7,5.01,000.00,029.1,027.6,000.0,037.5,030.7,10.1,0000.0,0004.17,0001.65,0000.92
2023-10-21 10:37:00,SystemResetWarning,0829.7,5.00,000.00,029.1,027.6,000.0,037.5,030.7,10.1,0000.0,0003.98,0001.69,0000.92
2023-10-21 10:38:00,SystemResetWarning,0829.7,5.00,000.00,029.1,027.6,000.0,037.5,030.7,10.1,0000.0,0004.22,0001.77,0000.93
2023-10-21 10:39:00,SystemResetWarning,0829.7,5.00,000.00,029.1,027.6,000.0,037.5,030.7,10.0,0000.0,0004.26,0001.79,0000.93
2023-10-21 10:40:00,SystemResetWarning,0829.7,5.00,000.00,029.1,027.6,000.0,037.5,030.7,10.0,0000.0,0004.75,0001.80,0000.94
2023-10-21 10:41:00,SystemResetWarning,0829.7,4.99,000.00,029.1,027.6,000.0,037.5,030.7,10.0,0000.0,0004.90,0001.78,0000.94
2023-10-21 10:42:00,SystemResetWarning,0829.7,5.01,000.00,029.1,027.6,000.0,037.6,030.7,10.0,0000.0,0004.98,0001.78,0000.94
2023-10-21 10:43:00,SystemResetWarning,0829.7,5.01,000.00,029.1,027.6,000.0,037.6,030.7,10.0,0000.0,0005.72,0001.77,0000.93
2023-10-21 10:44:00,SystemResetWarning,0829.7,5.00,000.00,029.1,027.6,000.0,037.5,030.7,10.0,0000.0,0006.06,0001.77,0000.93
2023-10-21 10:45:00,SystemResetWarning,0829.7,5.00,000.00,029.1,027.6,000.0,037.5,030.7,10.0,0000.0,0007.09,0001.76,0000.94
2023-10-21 10:46:00,SystemResetWarning,0829.7,5.01,000.00,029.1,027.6,000.0,037.5,030.7,10.0,0000.0,0007.94,0001.70,0000.94
2023-10-21 10:47:00,SystemResetWarning,0829.7,5.00,000.00,029.1,027.6,000.0,037.5,030.7,10.0,0000.0,0007.89,0001.64,0000.92
2023-10-21 10:48:00,SystemResetWarning,0829.7,5.00,000.00,029.1,027.6,000.0,037.5,030.7,10.0,0000.0,0007.82,0001.61,0000.92
2023-10-21 10:49:00,SystemResetWarning,0829.7,5.00,000.00,029.1,027.5,000.0,037.5,030.6,10.0,0000.0,0007.67,0001.56,0000.91
2023-10-21 10:50:00,SystemResetWarning,0829.7,5.00,000.00,029.1,027.5,000.0,037.5,030.7,10.0,0000.0,0007.56,0001.52,0000.91
2023-10-21 10:51:00,SystemResetWarning,0829.7,5.00,000.00,029.1,027.5,000.0,037.5,030.6,10.0,0000.0,0007.22,0001.51,0000.91
2023-10-21 10:52:00,SystemResetWarning,0829.7,5.01,000.00,029.1,027.5,000.0,037.5,030.6,9.9,0000.0,0006.85,0001.49,0000.91
2023-10-21 10:53:00,SystemResetWarning,0829.7,5.00,000.00,029.1,027.5,000.0,037.5,030.7,9.9,0000.0,0006.76,0001.48,0000.91
2023-10-21 10:54:00,SystemResetWarning,0829.7,5.00,000.00,029.0,027.5,000.0,037.5,030.6,9.9,0000.0,0006.28,0001.50,0000.91
2023-10-21 10:55:00,SystemResetWarning,0829.7,5.00,000.00,029.1,027.5,000.0,037.5,030.6,9.8,0000.0,0005.97,0001.57,0000.91
2023-10-21 10:56:00,SystemResetWarning,0829.7,5.00,000.00,029.0,027.5,000.0,037.5,030.6,9.8,0000.0,0005.04,0001.59,0000.90
2023-10-21 10:57:00,SystemResetWarning,0829.7,5.00,000.00,029.0,027.5,000.0,037.5,030.7,9.8,0000.0,0004.00,0001.63,0000.90
2023-10-21 10:58:00,SystemResetWarning,0829.7,5.00,000.00,029.0,027.5,000.0,037.5,030.6,9.8,0000.0,0003.88,0001.64,0000.89
2023-10-21 10:59:00,SystemResetWarning,0829.7,5.00,000.00,029.0,027.5,000.0,037.5,030.6,9.9,0000.0,0003.70,0001.57,0000.89
